Change the Weather History Date:

Tuesday, May 28, 2013

  Actual Average Record
Temperature  
Mean Temperature 78 °F -  
Max Temperature 82 °F 89 °F - ()
Min Temperature 73 °F 77 °F - ()
Cooling Degree Days 12    
Growing Degree Days 28 (Base 50)    
Moisture  
Dew Point 75 °F    
Average Humidity 91    
Maximum Humidity 99    
Minimum Humidity 84    
Precipitation  
Precipitation 0.12 in 0.32 in - ()
Sea Level Pressure  
Sea Level Pressure 29.89 in    
Wind  
Wind Speed 5 mph ()    
Max Wind Speed 14 mph    
Max Gust Speed -    
Visibility 6.8 miles    
Events Rain , Thunderstorm    
T = Trace of Precipitation, MM = Missing Value Source: Averaged Metar Reports

Daily Weather History Graph

Daily Weather History Graph

Search for Another Location

Airport or City:

Trip Planner

Search our weather history database for the weather conditions in past years. The results will help you decide how hot, cold, wet, or windy it might be!

Date:

Astronomy

May. 28, 2013 Rise Set
Actual Time 5:18 AM CST 6:23 PM CST
Civil Twilight 4:54 AM CST 6:46 PM CST
Nautical Twilight 4:26 AM CST 7:14 PM CST
Astronomical Twilight 3:57 AM CST 7:43 PM CST
Moon 10:04 PM CST (5/28) 8:53 AM CST (5/28)
Length of Visible Light 13h 52m
Length of Day
13h 05m
Waning Gibbous, 82% of the Moon is Illuminated
May 28
Waning Gibbous
May 31
Last Quarter
Jun 8
New
Jun 16
First Quarter
Jun 23
Full

Hourly Weather History & Observations

Time (CST) Temp. Heat Index Dew Point Humidity Pressure Visibility Wind Dir Wind Speed Gust Speed Precip Events Conditions
12:00 AM 76 °F - 74 °F 94% 29.93 in 7 mi WSW 5.8 mph - - Rain , Thunderstorm Thunderstorms and Rain
3:00 AM 73 °F - 73 °F 99% 29.90 in 5 mi Calm Calm - - Rain , Thunderstorm Thunderstorms and Rain
5:00 AM 75.2 °F - 73.4 °F 94% 29.89 in 5.0 mi NE 6.9 mph - N/A Rain Light Rain
6:00 AM 75.2 °F - 73.4 °F 94% 29.86 in 6.2 mi NE 5.8 mph - N/A   Mostly Cloudy
7:00 AM 77.0 °F - 75.2 °F 94% 29.89 in 6.2 mi NE 5.8 mph - N/A   Mostly Cloudy
8:00 AM 77.0 °F - 75.2 °F 94% 29.92 in 6.2 mi NNE 3.5 mph - N/A   Mostly Cloudy
9:00 AM 78 °F - 76 °F 93% 29.94 in 9 mi NE 5.8 mph - - Rain Light Rain
9:00 AM 78.8 °F - 77.0 °F 94% 29.93 in 6.2 mi NE 5.8 mph - N/A Rain Light Rain
10:00 AM 80.6 °F 87.1 °F 77.0 °F 89% 29.92 in 6.2 mi ENE 13.8 mph - N/A   Mostly Cloudy
11:00 AM 77.0 °F - 73.4 °F 89% 29.92 in 6.2 mi East 5.8 mph - N/A Rain Light Rain
11:05 AM 77.0 °F - 73.4 °F 89% 29.91 in 5.0 mi ESE 4.6 mph - N/A Rain Light Rain
12:00 PM 77 °F - 74 °F 86% 29.91 in 9 mi ENE 4.6 mph - - Rain Light Rain
12:00 PM 77.0 °F - 73.4 °F 89% 29.90 in 6.2 mi ENE 4.6 mph - N/A Rain Light Rain
12:15 PM 77.0 °F - 73.4 °F 89% 29.90 in 5.0 mi ENE 5.8 mph - N/A Rain Rain
12:40 PM 77.0 °F - 73.4 °F 89% 29.89 in 6.2 mi West 4.6 mph - N/A Rain Light Rain
1:00 PM 77.0 °F - 75.2 °F 94% 29.88 in 6.2 mi NE 4.6 mph - N/A Rain Light Rain
2:00 PM 80.6 °F 86.2 °F 75.2 °F 84% 29.86 in 6.2 mi ENE 10.4 mph - N/A   Mostly Cloudy
3:00 PM 79 °F - 77 °F 91% 29.85 in 12 mi ENE 8.1 mph - - Rain Light Rain Showers
3:00 PM 78.8 °F - 77.0 °F 94% 29.84 in 6.2 mi ENE 8.1 mph - N/A   Mostly Cloudy
4:00 PM 78.8 °F - 77.0 °F 94% 29.83 in 6.2 mi NE 8.1 mph - N/A   Mostly Cloudy
5:00 PM 80.6 °F 87.1 °F 77.0 °F 89% 29.83 in 6.2 mi NE 8.1 mph - N/A   Mostly Cloudy
6:00 PM 80 °F - 77 °F 86% 29.85 in 12 mi NE 9.2 mph - -   Partly Cloudy
6:00 PM 78.8 °F - 77.0 °F 94% 29.84 in 6.2 mi NE 9.2 mph - N/A   Mostly Cloudy
9:00 PM 79 °F - 77 °F 93% 29.88 in 7 mi NE 5.8 mph - - Rain , Thunderstorm Thunderstorms and Rain